SJX235 RCTP-VHHH

Flight info

Callsign SJX235
Flight time 1h 21m
Altitude 40000
Route CHALI1A CHALI DCT INDIA/K0896S1310 DCT APAKA DCT 230525N1173003E/N0484F430 DCT MALKA DCT MAGOG DCT 221549N1145528E DCT MUSEL DCT PONTI DCT RIVMI
Aircraft A359/H-SDE2E3GHIJ3J4J5LM1ORWXY/LB1D1

Departure

Time 2026-05-03 23:26
Airport Taiwan Taoyuan International Airport (RCTP)

Arrival

Time 2026-05-04 00:48
Airport Hong Kong International Airport (VHHH)
Time Latitude Longitude Altitude Speed Heading
2026-05-03 23:01 25.07865 121.24135 107 ft 0 kts 319°
2026-05-03 23:17 25.07848 121.24152 83 ft 4 kts 313°
2026-05-03 23:17 25.07831 121.24175 104 ft 4 kts 303°
2026-05-03 23:17 25.07819 121.24201 103 ft 4 kts 287°
2026-05-03 23:17 25.07816 121.24228 106 ft 4 kts 245°
2026-05-03 23:18 25.07819 121.24236 103 ft 0 kts 229°
2026-05-03 23:20 25.07819 121.24235 103 ft 0 kts 229°
2026-05-03 23:20 25.07813 121.24228 106 ft 3 kts 229°
2026-05-03 23:20 25.07790 121.24199 105 ft 7 kts 229°
2026-05-03 23:21 25.07745 121.24143 106 ft 12 kts 229°
2026-05-03 23:21 25.07678 121.24057 106 ft 17 kts 229°
2026-05-03 23:21 25.07591 121.23946 106 ft 21 kts 229°
2026-05-03 23:21 25.07487 121.23816 108 ft 24 kts 228°
2026-05-03 23:22 25.07230 121.23489 106 ft 32 kts 229°
2026-05-03 23:22 25.07077 121.23294 106 ft 35 kts 229°
2026-05-03 23:22 25.06929 121.23106 106 ft 19 kts 229°
2026-05-03 23:23 25.06834 121.22986 106 ft 23 kts 228°
2026-05-03 23:23 25.06721 121.22843 105 ft 27 kts 229°
2026-05-03 23:23 25.06590 121.22677 106 ft 31 kts 229°
2026-05-03 23:23 25.06440 121.22487 106 ft 34 kts 229°
2026-05-03 23:24 25.06341 121.22362 105 ft 20 kts 229°
2026-05-03 23:24 25.06261 121.22262 106 ft 13 kts 221°
2026-05-03 23:24 25.06173 121.22283 105 ft 16 kts 139°
2026-05-03 23:24 25.06121 121.22394 105 ft 18 kts 67°
2026-05-03 23:25 25.06152 121.22441 105 ft 0 kts 49°
2026-05-03 23:25 25.06171 121.22465 103 ft 23 kts 49°
2026-05-03 23:26 25.06491 121.22873 101 ft 113 kts 49°
2026-05-03 23:26 25.07137 121.23691 422 ft 157 kts 50°
2026-05-03 23:26 25.07873 121.24627 1400 ft 165 kts 53°
2026-05-03 23:26 25.08640 121.25638 2245 ft 181 kts 52°
2026-05-03 23:27 25.09455 121.26697 3218 ft 186 kts 52°
2026-05-03 23:27 25.10435 121.27708 4118 ft 196 kts 38°
2026-05-03 23:27 25.11789 121.28187 4846 ft 217 kts
2026-05-03 23:27 25.13297 121.27743 5535 ft 239 kts 332°
2026-05-03 23:28 25.14631 121.26616 6422 ft 240 kts 314°
2026-05-03 23:28 25.15852 121.25418 7435 ft 239 kts 312°
2026-05-03 23:28 25.17157 121.24131 8186 ft 261 kts 313°
2026-05-03 23:28 25.18558 121.22787 9253 ft 267 kts 312°
2026-05-03 23:29 25.19932 121.21490 10414 ft 269 kts 312°
2026-05-03 23:29 25.21381 121.20118 11068 ft 292 kts 313°
2026-05-03 23:29 25.23020 121.18562 11564 ft 320 kts 313°
2026-05-03 23:29 25.24587 121.16751 12226 ft 329 kts 301°
2026-05-03 23:30 25.25658 121.14541 13111 ft 325 kts 283°
2026-05-03 23:30 25.25955 121.12129 14049 ft 319 kts 262°
2026-05-03 23:30 25.25293 121.09808 14871 ft 319 kts 240°
2026-05-03 23:30 25.24081 121.07726 15692 ft 325 kts 236°
2026-05-03 23:31 25.23215 121.06323 16231 ft 328 kts 237°
2026-05-03 23:31 25.21527 121.03506 17302 ft 335 kts 238°
2026-05-03 23:31 25.20116 121.01432 18118 ft 340 kts 230°
2026-05-03 23:31 25.18455 120.99567 18849 ft 346 kts 227°
2026-05-03 23:32 25.16699 120.97709 19543 ft 351 kts 226°
2026-05-03 23:32 25.14911 120.95822 20261 ft 356 kts 227°
2026-05-03 23:32 25.13719 120.94560 20724 ft 360 kts 227°
2026-05-03 23:32 25.11304 120.91992 21632 ft 366 kts 228°
2026-05-03 23:33 25.09470 120.90012 22332 ft 371 kts 228°
2026-05-03 23:33 25.08246 120.88688 22813 ft 374 kts 228°
2026-05-03 23:33 25.05755 120.85999 23741 ft 379 kts 228°
2026-05-03 23:33 25.04497 120.84642 24143 ft 382 kts 228°
2026-05-03 23:34 25.02578 120.82571 24852 ft 387 kts 227°
2026-05-03 23:34 25.00642 120.80475 25658 ft 390 kts 227°
2026-05-03 23:34 24.98688 120.78374 26580 ft 393 kts 227°
2026-05-03 23:34 24.96717 120.76261 27539 ft 396 kts 227°
2026-05-03 23:35 24.94743 120.74143 28229 ft 402 kts 227°
2026-05-03 23:35 24.92726 120.71978 28842 ft 406 kts 227°
2026-05-03 23:35 24.90687 120.69788 29481 ft 410 kts 227°
2026-05-03 23:35 24.88628 120.67579 30097 ft 414 kts 226°
2026-05-03 23:36 24.86585 120.65387 30613 ft 417 kts 227°
2026-05-03 23:36 24.84503 120.63155 31151 ft 419 kts 227°
2026-05-03 23:36 24.82395 120.60896 31677 ft 422 kts 227°
2026-05-03 23:36 24.80283 120.58633 32202 ft 424 kts 227°
2026-05-03 23:37 24.78156 120.56356 32701 ft 427 kts 227°
2026-05-03 23:37 24.76047 120.54095 33185 ft 429 kts 228°
2026-05-03 23:37 24.74049 120.51667 33637 ft 428 kts 234°
2026-05-03 23:37 24.72408 120.48941 34066 ft 428 kts 243°
2026-05-03 23:38 24.71117 120.45978 34424 ft 430 kts 247°
2026-05-03 23:38 24.69940 120.42953 34824 ft 430 kts 249°
2026-05-03 23:38 24.68808 120.39898 35176 ft 432 kts 249°
2026-05-03 23:38 24.67694 120.36842 35723 ft 429 kts 249°
2026-05-03 23:39 24.66587 120.33810 36303 ft 426 kts 250°
2026-05-03 23:39 24.65488 120.30824 36779 ft 425 kts 250°
2026-05-03 23:39 24.64369 120.27810 37278 ft 423 kts 250°
2026-05-03 23:39 24.63250 120.24818 37749 ft 422 kts 250°
2026-05-03 23:40 24.62130 120.21837 38212 ft 420 kts 250°
2026-05-03 23:40 24.61024 120.18900 38673 ft 419 kts 250°
2026-05-03 23:40 24.59906 120.15934 39036 ft 418 kts 250°
2026-05-03 23:40 24.58787 120.12967 39326 ft 419 kts 250°
2026-05-03 23:41 24.57664 120.09991 39658 ft 419 kts 250°
2026-05-03 23:41 24.56563 120.07073 39956 ft 419 kts 250°
2026-05-03 23:41 24.54336 120.01179 40036 ft 417 kts 250°
2026-05-03 23:42 24.52104 119.95279 40165 ft 420 kts 250°
2026-05-03 23:42 24.50987 119.92326 40281 ft 424 kts 250°
2026-05-03 23:42 24.49852 119.89330 40539 ft 424 kts 250°
2026-05-03 23:43 24.48718 119.86340 40849 ft 424 kts 250°
2026-05-03 23:43 24.47583 119.83351 41136 ft 424 kts 250°
2026-05-03 23:43 24.46445 119.80357 41492 ft 423 kts 250°
2026-05-03 23:43 24.45324 119.77407 41799 ft 422 kts 250°
2026-05-03 23:44 24.44191 119.74428 41993 ft 423 kts 250°
2026-05-03 23:44 24.43057 119.71447 42042 ft 423 kts 250°
2026-05-03 23:44 24.40796 119.65514 42037 ft 423 kts 250°
2026-05-03 23:45 24.38525 119.59559 42045 ft 423 kts 250°
2026-05-03 23:45 24.36237 119.53568 42069 ft 428 kts 250°
2026-05-03 23:46 24.33924 119.47514 42039 ft 436 kts 250°
2026-05-03 23:46 24.31564 119.41354 42045 ft 438 kts 250°
2026-05-03 23:47 24.29196 119.35188 42050 ft 438 kts 250°
2026-05-03 23:47 24.26836 119.29046 42048 ft 438 kts 250°
2026-05-03 23:48 24.24469 119.22895 42058 ft 438 kts 250°
2026-05-03 23:48 24.22092 119.16728 42053 ft 437 kts 250°
2026-05-03 23:49 24.19721 119.10580 42053 ft 437 kts 250°
2026-05-03 23:49 24.17359 119.04466 42053 ft 437 kts 250°
2026-05-03 23:50 24.14976 118.98303 42056 ft 439 kts 250°
2026-05-03 23:50 24.12588 118.92140 42047 ft 440 kts 250°
2026-05-03 23:51 24.10112 118.86040 42055 ft 442 kts 245°
2026-05-03 23:51 24.06970 118.80216 42053 ft 444 kts 242°
2026-05-03 23:52 24.03705 118.74505 42056 ft 444 kts 242°
2026-05-03 23:52 24.00401 118.68786 42056 ft 444 kts 242°
2026-05-03 23:53 23.97132 118.63117 42014 ft 442 kts 242°
2026-05-03 23:53 23.93840 118.57392 42053 ft 445 kts 242°
2026-05-03 23:54 23.90539 118.51654 42059 ft 446 kts 242°
2026-05-03 23:54 23.87228 118.45953 42048 ft 447 kts 240°
2026-05-03 23:55 23.83296 118.40623 42056 ft 451 kts 234°
2026-05-03 23:55 23.79122 118.35452 42064 ft 451 kts 233°
2026-05-03 23:56 23.74965 118.30380 42045 ft 450 kts 233°
2026-05-03 23:56 23.70775 118.25256 42051 ft 453 kts 233°
2026-05-03 23:57 23.66564 118.20099 42051 ft 454 kts 233°
2026-05-03 23:57 23.62383 118.14977 42055 ft 454 kts 233°
2026-05-03 23:58 23.58168 118.09820 42050 ft 454 kts 233°
2026-05-03 23:58 23.53980 118.04703 42054 ft 453 kts 233°
2026-05-03 23:59 23.49769 117.99561 42045 ft 454 kts 233°
2026-05-03 23:59 23.45576 117.94446 42045 ft 455 kts 233°
2026-05-04 00:00 23.41358 117.89307 42045 ft 455 kts 233°
2026-05-04 00:00 23.37144 117.84178 42045 ft 455 kts 233°
2026-05-04 00:01 23.32942 117.79069 42040 ft 455 kts 233°
2026-05-04 00:01 23.28697 117.73912 42025 ft 455 kts 232°
2026-05-04 00:02 23.24487 117.68803 42041 ft 456 kts 232°
2026-05-04 00:02 23.20260 117.63681 42041 ft 456 kts 232°
2026-05-04 00:03 23.16013 117.58539 42038 ft 456 kts 232°
2026-05-04 00:03 23.11785 117.53426 42038 ft 456 kts 232°
2026-05-04 00:04 23.07566 117.48293 42038 ft 455 kts 234°
2026-05-04 00:04 23.03648 117.42902 42037 ft 454 kts 237°
2026-05-04 00:05 22.99860 117.37451 42039 ft 454 kts 236°
2026-05-04 00:05 22.96003 117.32000 42038 ft 454 kts 236°
2026-05-04 00:06 22.92138 117.26623 42039 ft 454 kts 236°
2026-05-04 00:06 22.88233 117.21222 42031 ft 454 kts 236°
2026-05-04 00:07 22.84342 117.15846 42041 ft 454 kts 236°
2026-05-04 00:07 22.80452 117.10472 42035 ft 454 kts 236°
2026-05-04 00:08 22.76553 117.05088 42038 ft 453 kts 236°
2026-05-04 00:08 22.73182 116.99377 42037 ft 447 kts 248°
2026-05-04 00:09 22.70719 116.93178 42040 ft 446 kts 250°
2026-05-04 00:09 22.68446 116.86961 42041 ft 446 kts 251°
2026-05-04 00:10 22.66179 116.80712 42041 ft 445 kts 251°
2026-05-04 00:10 22.63893 116.74474 42041 ft 445 kts 250°
2026-05-04 00:11 22.61605 116.68272 42033 ft 446 kts 250°
2026-05-04 00:11 22.59295 116.62028 42037 ft 447 kts 250°
2026-05-04 00:12 22.56988 116.55800 42042 ft 447 kts 250°
2026-05-04 00:12 22.54668 116.49547 42034 ft 447 kts 250°
2026-05-04 00:13 22.52345 116.43290 42034 ft 447 kts 250°
2026-05-04 00:13 22.50030 116.37064 42031 ft 447 kts 250°
2026-05-04 00:14 22.47702 116.30809 42034 ft 447 kts 250°
2026-05-04 00:14 22.45389 116.24606 42035 ft 447 kts 250°
2026-05-04 00:15 22.43053 116.18349 42020 ft 447 kts 250°
2026-05-04 00:15 22.40726 116.12122 42044 ft 448 kts 250°
2026-05-04 00:16 22.38378 116.05850 42030 ft 449 kts 250°
2026-05-04 00:16 22.36996 116.02163 42029 ft 449 kts 250°
2026-05-04 00:18 22.35681 115.98658 42030 ft 447 kts 250°
2026-05-04 00:19 22.33379 115.92530 42033 ft 437 kts 250°
2026-05-04 00:19 22.31480 115.87481 42030 ft 435 kts 250°
2026-05-04 00:20 22.29724 115.81261 41860 ft 431 kts 263°
2026-05-04 00:20 22.29442 115.78034 41615 ft 431 kts 266°
2026-05-04 00:20 22.29275 115.74835 41358 ft 431 kts 267°
2026-05-04 00:21 22.29163 115.71604 40936 ft 429 kts 268°
2026-05-04 00:21 22.29073 115.68372 40176 ft 429 kts 268°
2026-05-04 00:21 22.28987 115.65145 39427 ft 430 kts 268°
2026-05-04 00:21 22.28896 115.61903 38722 ft 430 kts 268°
2026-05-04 00:22 22.28798 115.58715 37880 ft 429 kts 268°
2026-05-04 00:22 22.28691 115.55480 36968 ft 431 kts 267°
2026-05-04 00:22 22.28580 115.52249 36209 ft 430 kts 267°
2026-05-04 00:22 22.28467 115.49054 35495 ft 428 kts 267°
2026-05-04 00:23 22.28352 115.45840 34746 ft 427 kts 267°
2026-05-04 00:23 22.28236 115.42609 33899 ft 429 kts 267°
2026-05-04 00:23 22.28119 115.39377 32970 ft 431 kts 267°
2026-05-04 00:23 22.28002 115.36150 32080 ft 431 kts 267°
2026-05-04 00:24 22.27884 115.32903 31187 ft 433 kts 267°
2026-05-04 00:24 22.27764 115.29637 30530 ft 447 kts 267°
2026-05-04 00:24 22.27639 115.26239 30162 ft 458 kts 267°
2026-05-04 00:24 22.27510 115.22754 30041 ft 462 kts 267°
2026-05-04 00:25 22.27383 115.19291 29798 ft 454 kts 267°
2026-05-04 00:25 22.27259 115.15945 28839 ft 449 kts 267°
2026-05-04 00:25 22.27132 115.12540 27574 ft 453 kts 267°
2026-05-04 00:25 22.27003 115.09135 26508 ft 453 kts 266°
2026-05-04 00:26 22.26875 115.05753 25576 ft 449 kts 266°
2026-05-04 00:26 22.26749 115.02435 24737 ft 445 kts 266°
2026-05-04 00:26 22.26621 114.99105 23854 ft 441 kts 266°
2026-05-04 00:26 22.26494 114.95796 22824 ft 439 kts 266°
2026-05-04 00:27 22.26367 114.92520 21915 ft 433 kts 266°
2026-05-04 00:27 22.26284 114.89330 21194 ft 424 kts 268°
2026-05-04 00:27 22.26295 114.86152 20276 ft 420 kts 269°
2026-05-04 00:27 22.26355 114.83011 19573 ft 412 kts 269°
2026-05-04 00:28 22.26483 114.79949 19179 ft 403 kts 274°
2026-05-04 00:28 22.27031 114.77001 19051 ft 407 kts 282°
2026-05-04 00:28 22.27841 114.74054 19030 ft 408 kts 284°
2026-05-04 00:28 22.28750 114.71148 18983 ft 403 kts 286°
2026-05-04 00:29 22.29686 114.68346 18387 ft 394 kts 286°
2026-05-04 00:29 22.30639 114.65557 17169 ft 399 kts 287°
2026-05-04 00:29 22.31592 114.62767 16129 ft 400 kts 287°
2026-05-04 00:29 22.32550 114.59953 15207 ft 396 kts 287°
2026-05-04 00:30 22.33490 114.57171 14351 ft 391 kts 288°
2026-05-04 00:30 22.34415 114.54416 13513 ft 386 kts 288°
2026-05-04 00:30 22.35308 114.51747 13084 ft 369 kts 288°
2026-05-04 00:30 22.36160 114.49199 12738 ft 352 kts 288°
2026-05-04 00:31 22.36921 114.46779 12420 ft 336 kts 283°
2026-05-04 00:31 22.37510 114.44384 12137 ft 321 kts 282°
2026-05-04 00:31 22.38025 114.42091 11880 ft 307 kts 281°
2026-05-04 00:31 22.38493 114.39880 11633 ft 294 kts 281°
2026-05-04 00:32 22.38929 114.37758 11252 ft 287 kts 281°
2026-05-04 00:32 22.39350 114.35698 10885 ft 281 kts 281°
2026-05-04 00:32 22.39766 114.33650 10441 ft 278 kts 281°
2026-05-04 00:32 22.40181 114.31625 10117 ft 271 kts 281°
2026-05-04 00:33 22.40562 114.29759 10002 ft 254 kts 281°
2026-05-04 00:33 22.41281 114.26285 9974 ft 217 kts 281°
2026-05-04 00:33 22.41588 114.24750 9973 ft 201 kts 281°
2026-05-04 00:34 22.41870 114.23321 9978 ft 190 kts 281°
2026-05-04 00:34 22.42157 114.21951 9980 ft 188 kts 281°
2026-05-04 00:34 22.42450 114.20569 9983 ft 188 kts 281°
2026-05-04 00:34 22.42745 114.19196 9970 ft 188 kts 281°
2026-05-04 00:35 22.43042 114.17808 9991 ft 189 kts 281°
2026-05-04 00:35 22.43337 114.16421 9987 ft 189 kts 281°
2026-05-04 00:35 22.43630 114.15038 9985 ft 189 kts 281°
2026-05-04 00:35 22.43921 114.13636 10000 ft 198 kts 281°
2026-05-04 00:36 22.44249 114.12047 10004 ft 241 kts 281°
2026-05-04 00:36 22.44633 114.10179 10004 ft 263 kts 281°
2026-05-04 00:36 22.45030 114.08240 9803 ft 261 kts 281°
2026-05-04 00:36 22.45421 114.06310 9238 ft 264 kts 281°
2026-05-04 00:37 22.45564 114.04346 8677 ft 265 kts 263°
2026-05-04 00:37 22.45043 114.02459 8167 ft 266 kts 249°
2026-05-04 00:37 22.44313 114.00618 7654 ft 267 kts 248°
2026-05-04 00:37 22.43557 113.98774 7164 ft 266 kts 248°
2026-05-04 00:38 22.42812 113.96961 6833 ft 259 kts 248°
2026-05-04 00:38 22.42097 113.95215 6665 ft 248 kts 248°
2026-05-04 00:38 22.41414 113.93547 6518 ft 239 kts 248°
2026-05-04 00:38 22.40750 113.91927 6258 ft 234 kts 248°
2026-05-04 00:39 22.40100 113.90327 5910 ft 233 kts 248°
2026-05-04 00:39 22.39457 113.88737 5560 ft 232 kts 248°
2026-05-04 00:39 22.38814 113.87136 5197 ft 232 kts 248°
2026-05-04 00:39 22.38180 113.85538 5014 ft 230 kts 248°
2026-05-04 00:40 22.37567 113.83977 4992 ft 231 kts 248°
2026-05-04 00:40 22.36939 113.82373 4990 ft 231 kts 248°
2026-05-04 00:40 22.36314 113.80774 4976 ft 232 kts 248°
2026-05-04 00:40 22.35695 113.79192 4749 ft 230 kts 248°
2026-05-04 00:41 22.35068 113.77603 4375 ft 229 kts 248°
2026-05-04 00:41 22.34433 113.76013 4007 ft 229 kts 247°
2026-05-04 00:41 22.33795 113.74440 3649 ft 230 kts 248°
2026-05-04 00:41 22.33136 113.72858 3254 ft 233 kts 248°
2026-05-04 00:42 22.32460 113.71232 2771 ft 240 kts 248°
2026-05-04 00:42 22.31731 113.69609 2291 ft 243 kts 239°
2026-05-04 00:42 22.30607 113.68327 2011 ft 226 kts 209°
2026-05-04 00:42 22.29192 113.67936 1991 ft 201 kts 173°
2026-05-04 00:43 22.27947 113.68455 2002 ft 189 kts 135°
2026-05-04 00:43 22.27323 113.69610 1992 ft 178 kts 95°
2026-05-04 00:43 22.27345 113.70921 1992 ft 174 kts 81°
2026-05-04 00:43 22.27427 113.72221 1993 ft 173 kts 82°
2026-05-04 00:44 22.27530 113.73517 1996 ft 172 kts 76°
2026-05-04 00:44 22.27846 113.74747 1996 ft 171 kts 69°
2026-05-04 00:44 22.28230 113.75967 1991 ft 172 kts 69°
2026-05-04 00:44 22.28624 113.77199 2002 ft 174 kts 68°
2026-05-04 00:45 22.29019 113.78437 1902 ft 174 kts 69°
2026-05-04 00:45 22.29407 113.79666 1669 ft 172 kts 68°
2026-05-04 00:45 22.29800 113.80893 1427 ft 174 kts 68°
2026-05-04 00:45 22.30195 113.82117 1207 ft 175 kts 68°
2026-05-04 00:46 22.30595 113.83361 985 ft 176 kts 70°
2026-05-04 00:46 22.30983 113.84576 751 ft 162 kts 70°
2026-05-04 00:46 22.31337 113.85681 550 ft 149 kts 68°
2026-05-04 00:46 22.31661 113.86686 378 ft 135 kts 71°
2026-05-04 00:47 22.31947 113.87604 217 ft 126 kts 68°
2026-05-04 00:47 22.32229 113.88466 61 ft 117 kts 70°
2026-05-04 00:47 22.32486 113.89260 38 ft 102 kts 70°
2026-05-04 00:47 22.32696 113.89898 39 ft 80 kts 71°
2026-05-04 00:48 22.32819 113.90323 39 ft 26 kts 85°
2026-05-04 00:48 22.32810 113.90491 39 ft 13 kts 101°
2026-05-04 00:48 22.32774 113.90583 38 ft 11 kts 138°
2026-05-04 00:48 22.32744 113.90579 38 ft 6 kts 223°
2026-05-04 00:49 22.32710 113.90507 38 ft 14 kts 249°
2026-05-04 00:49 22.32669 113.90388 38 ft 19 kts 250°
2026-05-04 00:49 22.32602 113.90287 38 ft 15 kts 180°
2026-05-04 00:49 22.32489 113.90325 38 ft 20 kts 162°
2026-05-04 00:50 22.32349 113.90379 38 ft 24 kts 160°
2026-05-04 00:50 22.32207 113.90430 38 ft 17 kts 161°
2026-05-04 00:50 22.32082 113.90475 38 ft 22 kts 161°
2026-05-04 00:50 22.31925 113.90535 38 ft 26 kts 160°
2026-05-04 00:51 22.31762 113.90597 38 ft 23 kts 162°
2026-05-04 00:51 22.31654 113.90667 39 ft 15 kts 99°
2026-05-04 00:51 22.31684 113.90785 39 ft 18 kts 71°
2026-05-04 00:51 22.31729 113.90927 39 ft 22 kts 70°
2026-05-04 00:52 22.31785 113.91099 39 ft 26 kts 71°
2026-05-04 00:52 22.31849 113.91293 39 ft 29 kts 70°
2026-05-04 00:52 22.31917 113.91502 39 ft 29 kts 72°
2026-05-04 00:52 22.31964 113.91655 39 ft 20 kts 71°
2026-05-04 00:53 22.32013 113.91809 39 ft 23 kts 70°
2026-05-04 00:53 22.32070 113.91986 39 ft 27 kts 71°
2026-05-04 00:53 22.32134 113.92186 39 ft 28 kts 71°
2026-05-04 00:53 22.32197 113.92381 39 ft 27 kts 71°
2026-05-04 00:54 22.32254 113.92557 39 ft 18 kts 71°
2026-05-04 00:54 22.32269 113.92656 39 ft 4 kts 125°
2026-05-04 00:54 22.32215 113.92681 39 ft 13 kts 159°
2026-05-04 00:54 22.32106 113.92720 40 ft 19 kts 162°
2026-05-04 00:55 22.31960 113.92772 40 ft 25 kts 161°
2026-05-04 00:55 22.31895 113.92800 38 ft 6 kts 158°
2026-05-04 00:55 22.31829 113.92830 38 ft 14 kts 158°
2026-05-04 00:55 22.31716 113.92876 38 ft 20 kts 160°
2026-05-04 00:56 22.31578 113.92925 38 ft 12 kts 171°
2026-05-04 00:56 22.31539 113.92920 38 ft 7 kts 203°
2026-05-04 00:56 22.31495 113.92908 38 ft 4 kts 173°
2026-05-04 00:56 22.31449 113.92923 38 ft 6 kts 163°
2026-05-04 00:57 22.31440 113.92926 38 ft 3 kts 162°
2026-05-04 00:57 22.31428 113.92930 38 ft 0 kts 161°